TimeMST,TemperatureF,Dew PointF,Humidity,Sea Level PressureIn,VisibilityMPH,Wind Direction,Wind SpeedMPH,Gust SpeedMPH,PrecipitationIn,Events,Conditions,WindDirDegrees,DateUTC
12:51 AM,36.0,27.0,70,30.15,-9999.0,SE,3.5,-,N/A,,Unknown,130,2013-01-24 07:51:00
1:51 AM,33.1,30.0,89,30.12,-9999.0,SSE,3.5,-,0.01,,Unknown,150,2013-01-24 08:51:00
2:51 AM,32.0,30.0,92,30.10,-9999.0,SSE,10.4,-,0.03,,Unknown,150,2013-01-24 09:51:00
3:51 AM,32.0,28.9,88,30.10,-9999.0,SE,12.7,19.6,0.02,,Unknown,140,2013-01-24 10:51:00
4:51 AM,32.0,28.9,88,30.09,-9999.0,SE,12.7,18.4,0.01,,Unknown,140,2013-01-24 11:51:00
5:51 AM,32.0,30.0,92,30.11,-9999.0,SSE,6.9,-,0.02,,Unknown,150,2013-01-24 12:51:00
6:51 AM,32.0,30.0,92,30.12,-9999.0,ESE,4.6,-,0.01,,Unknown,120,2013-01-24 13:51:00
7:51 AM,32.0,30.0,92,30.13,-9999.0,Calm,Calm,-,0.02,,Unknown,0,2013-01-24 14:51:00
8:51 AM,30.9,30.0,96,30.12,-9999.0,Calm,Calm,-,N/A,,Unknown,0,2013-01-24 15:51:00
9:51 AM,32.0,30.0,92,30.10,-9999.0,Calm,Calm,-,0.01,,Unknown,0,2013-01-24 16:51:00
10:51 AM,34.0,30.9,89,30.09,-9999.0,NNW,3.5,-,0.01,,Unknown,330,2013-01-24 17:51:00
11:51 AM,35.1,30.9,85,30.09,-9999.0,Calm,Calm,-,N/A,,Unknown,0,2013-01-24 18:51:00
12:51 PM,37.0,28.9,73,30.08,-9999.0,Calm,Calm,-,N/A,,Unknown,0,2013-01-24 19:51:00
1:51 PM,35.1,27.0,72,30.10,-9999.0,Calm,Calm,-,N/A,,Unknown,0,2013-01-24 20:51:00
2:51 PM,37.9,23.0,55,30.08,-9999.0,Calm,Calm,-,N/A,,Unknown,0,2013-01-24 21:51:00
3:51 PM,36.0,24.1,62,30.10,-9999.0,Calm,Calm,-,N/A,,Unknown,0,2013-01-24 22:51:00
4:51 PM,33.1,23.0,66,30.13,-9999.0,WSW,3.5,-,N/A,,Unknown,240,2013-01-24 23:51:00
5:51 PM,26.1,21.9,84,30.18,-9999.0,South,3.5,-,N/A,,Unknown,190,2013-01-25 00:51:00
6:51 PM,19.9,17.1,89,30.22,-9999.0,South,3.5,-,N/A,,Unknown,180,2013-01-25 01:51:00
7:51 PM,23.0,19.0,85,30.21,-9999.0,Calm,Calm,-,N/A,,Unknown,0,2013-01-25 02:51:00
8:51 PM,24.1,19.0,81,30.22,-9999.0,Calm,Calm,-,N/A,,Unknown,0,2013-01-25 03:51:00
9:51 PM,26.1,19.0,75,30.21,-9999.0,Variable,5.8,-,N/A,,Unknown,0,2013-01-25 04:51:00
10:51 PM,21.0,17.1,85,30.22,-9999.0,ESE,3.5,-,N/A,,Unknown,110,2013-01-25 05:51:00
11:51 PM,19.9,17.1,89,30.23,-9999.0,South,3.5,-,N/A,,Unknown,170,2013-01-25 06:51:00